RH
46 31 25 23 27 25 24 19 13 17 16 14 16 17 18 18 22 29 42 47 44 55 76 88 78 80 95 94 86 75 76 83 82 89 94 82 78 78 66 73 77 76 73 83 86 85 84 87 86
42 27 24 22 29 28 23 15 16 12 16 16 15 15 18 20 20 36 41 49 45 56 70 77 82 77 87 94 82 79 73 85 88 92 84 74 67 68 72 79 82 77 76 77 81 82 80 80 81
41 26 23 26 26 27 21 16 15 15 15 16 17 16 17 22 26 29 40 48 45 54 61 70 76 73 85 88 81 80 80 88 94 86 76 69 67 69 76 81 84 67 74 78 74 65 66 70 72
30 24 21 29 27 20 18 16 14 17 15 16 17 19 18 25 26 32 44 45 45 53 57 79 78 78 81 86 82 86 77 78 92 76 66 71 70 72 74 82 76 62 63 74 84 87 78 72 72
31 23 29 27 23 17 15 16 16 18 16 16 16 18 20 28 34 42 46 44 45 51 63 90 81 83 83 85 84 86 82 84 88 74 75 77 80 80 80 79 76 70 67 76 86 95 92 93 92
30 23 29 27 22 17 14 16 16 17 15 15 17 17 20 30 33 43 48 44 44 52 60 81 84 79 85 86 88 85 84 82 84 82 83 78 77 75 76 84 76 78 77 90 94 97 94 93 92
34 29 27 23 19 16 15 16 18 17 16 15 14 19 19 24 40 44 45 44 46 52 58 71 89 89 86 84 88 87 84 81 83 82 83 81 72 77 89 82 84 82 81 90 93 92 88 84 78
30 28 29 24 20 19 14 16 16 17 17 14 15 18 19 25 43 44 44 46 47 53 56 60 81 93 93 96 86 83 83 75 77 77 80 77 70 82 84 81 82 79 84 87 85 82 80 78 68
35 38 33 28 21 19 14 19 17 16 18 17 16 16 23 28 43 43 45 49 49 53 54 54 64 76 82 82 89 86 82 72 69 76 75 71 73 75 81 88 67 78 80 82 80 80 74 61 57
43 39 30 18 16 19 18 22 19 22 22 18 20 19 23 29 36 41 42 44 47 51 54 57 56 62 76 84 86 82 83 82 69 67 75 70 62 64 63 72 72 78 78 78 77 73 53 51 50
38 40 23 20 27 26 24 22 23 26 26 18 18 19 20 24 30 33 36 36 41 46 50 57 58 58 72 77 85 72 69 71 64 60 60 56 58 66 66 72 74 79 79 65 61 50 48 47 45
41 31 28 25 29 36 35 27 27 26 26 17 17 19 21 24 23 24 28 32 33 40 47 54 58 63 70 78 78 64 60 62 61 64 60 56 55 57 57 59 70 67 61 58 52 46 42 37 31
40 37 28 31 34 36 36 36 32 30 26 22 21 22 26 25 23 23 24 26 30 35 43 51 56 66 66 69 71 62 58 60 62 64 60 51 53 57 57 64 61 59 59 48 45 40 35 28 23
36 36 34 35 34 35 39 35 31 28 24 24 24 24 22 23 23 22 24 24 26 32 37 46 55 67 67 65 63 60 58 60 66 63 61 57 57 59 65 61 57 64 54 50 36 30 25 22 23
46 52 43 39 38 40 36 43 39 28 24 23 22 20 21 20 19 20 22 23 24 24 30 35 48 58 64 66 65 61 61 60 71 63 62 62 64 70 65 60 64 60 54 34 31 26 26 25 24
50 46 53 31 33 32 38 43 22 21 23 25 24 22 20 19 17 18 20 21 24 24 24 25 37 50 61 62 64 61 60 61 71 64 63 64 74 69 65 63 64 56 44 30 29 29 27 25 24
50 51 42 36 32 34 42 43 27 27 31 26 24 23 22 21 19 18 18 20 21 24 25 26 29 37 46 54 58 58 59 62 72 65 65 73 72 68 66 65 61 40 32 30 26 29 27 26 26
44 46 40 38 29 36 40 39 30 26 28 30 28 26 25 24 24 22 22 22 20 20 24 26 29 32 36 46 55 58 61 65 72 70 75 80 69 70 67 65 40 34 33 30 29 27 29 29 28
37 43 42 34 30 37 37 35 31 26 24 26 25 25 24 23 20 22 24 26 25 22 25 25 26 29 35 43 53 59 69 74 82 79 76 71 71 70 66 48 33 32 32 30 27 28 30 32 29
46 49 47 37 34 38 38 38 30 27 26 24 24 22 22 21 19 18 19 22 26 25 26 27 26 31 37 47 56 65 77 87 84 74 70 69 71 67 55 39 34 33 32 31 30 31 31 31 30
50 52 49 48 39 38 40 39 24 20 19 19 21 22 21 20 18 16 15 18 22 26 26 28 28 32 42 50 62 76 87 86 75 71 62 56 59 58 41 34 34 35 34 36 35 34 31 29 32
56 38 41 45 52 56 40 50 29 20 19 18 18 18 17 18 18 18 17 16 17 21 26 30 30 36 48 56 69 78 78 73 69 66 58 51 47 38 34 34 35 36 36 36 34 33 31 27 30
54 44 49 49 55 64 51 64 34 23 25 22 19 18 17 16 16 16 16 18 18 18 26 33 36 43 55 64 67 76 68 72 66 62 57 44 37 36 36 34 36 35 35 32 32 33 31 29 25
52 51 54 53 59 80 46 39 30 21 17 15 15 16 16 14 14 15 18 18 19 21 26 38 43 51 59 64 72 69 66 66 58 52 46 43 40 41 38 34 35 34 34 35 34 33 34 30 30
55 68 69 79 90 65 27 38 32 19 18 19 18 17 16 16 21 23 18 20 21 24 26 41 50 57 62 70 65 66 69 58 56 50 47 47 37 35 35 34 34 35 36 35 34 35 35 34 33
65 61 61 58 47 39 28 41 30 17 16 17 17 17 17 18 27 34 33 25 22 28 30 45 53 58 63 66 65 67 64 58 52 48 47 42 38 36 37 32 32 33 33 33 34 36 34 34 35
66 86 52 66 50 61 38 28 21 18 17 16 16 19 20 25 32 34 36 31 22 29 35 46 54 57 61 65 66 68 65 54 48 43 39 33 32 34 32 31 31 31 31 31 31 29 30 33 34
57 53 84 90 79 60 36 30 28 20 18 16 17 18 21 28 33 36 39 32 25 30 38 48 52 55 60 65 69 63 54 48 43 38 34 33 32 30 31 30 31 31 31 31 31 31 32 32 33
71 81 73 55 81 65 57 38 19 22 23 21 21 26 29 36 38 39 42 35 33 31 42 48 52 56 61 64 57 53 50 47 45 39 35 33 30 30 30 30 30 30 30 29 29 29 31 34 36
39 59 58 90 68 76 81 64 26 22 23 24 24 28 30 30 35 38 46 46 46 44 49 52 53 57 60 51 51 51 51 48 39 34 31 30 30 29 29 29 28 28 28 28 27 28 31 36 39
Wind_Speed
9 9 8 9 6 7 12 9 11 5 5 6 3 7 8 11 9 2 8 5 15 20 22 21 19 17 16 14 12 10 8 7 8 9 13 12 10 8 5 6 7 7 7 6 8 8 8 8 7
7 8 9 6 7 12 11 12 8 9 2 4 9 10 10 8 6 8 12 7 17 19 20 19 19 17 16 14 11 9 8 9 9 12 11 9 7 9 8 7 8 8 8 8 6 7 7 6 6
7 7 7 6 13 14 12 5 7 4 5 5 4 4 4 3 5 9 10 14 18 17 18 20 19 17 15 12 10 9 9 10 12 13 9 7 9 10 8 7 7 8 9 9 8 7 7 6 5
7 8 6 11 17 15 16 1 2 6 5 3 2 6 5 4 3 5 13 16 18 16 16 19 21 19 14 12 10 8 9 11 14 12 10 8 7 6 5 5 5 7 7 8 7 7 6 5 5
13 7 11 15 21 20 9 9 6 8 3 6 4 8 1 7 8 10 14 16 17 16 17 17 20 16 13 12 11 9 9 11 12 12 9 6 5 6 5 5 0 4 5 5 5 4 4 4 4
8 8 12 16 20 19 17 10 11 12 10 7 8 9 3 9 9 10 13 14 17 18 15 16 17 14 12 11 11 10 11 11 11 11 8 5 5 4 8 8 4 4 4 3 3 3 4 3 3
15 11 17 20 18 18 15 12 11 14 14 13 4 8 7 10 6 10 12 14 15 16 16 16 17 17 13 11 11 11 11 13 11 12 8 6 2 2 12 10 6 4 3 3 3 3 3 2 4
11 14 21 19 18 21 12 8 12 13 14 1 3 7 4 7 7 9 10 12 14 15 15 16 17 17 16 13 13 12 11 12 14 14 12 8 4 7 9 7 7 5 3 3 2 3 3 4 5
11 13 16 21 22 15 11 8 12 7 11 6 8 9 7 5 8 9 10 11 13 14 16 17 19 18 17 16 14 13 12 12 14 15 14 10 7 7 7 8 5 4 3 1 2 3 2 4 6
12 13 20 16 15 16 14 11 14 8 15 14 10 5 3 4 8 11 12 13 14 16 18 18 19 19 18 18 18 14 12 11 11 13 12 11 9 9 8 7 6 4 2 1 1 2 5 6 4
14 18 14 15 10 8 12 12 13 11 15 14 16 12 8 5 7 10 13 14 16 16 17 18 18 18 19 19 19 16 15 13 13 12 12 11 11 9 8 6 5 4 4 1 2 3 3 4 5
16 15 19 13 7 11 13 16 17 18 17 15 11 10 4 9 10 10 13 14 13 17 18 18 18 18 18 18 18 17 16 15 14 13 13 12 12 11 10 9 9 5 4 2 2 1 3 4 5
13 17 13 13 14 13 14 18 19 18 17 17 18 14 14 15 15 14 11 13 17 16 17 19 20 20 19 19 18 17 17 16 15 14 14 13 12 12 11 8 7 6 4 3 1 2 3 4 6
1 12 13 13 15 15 18 21 19 17 21 22 22 21 20 21 19 20 18 15 15 17 18 19 20 21 20 20 18 18 17 17 17 16 16 15 13 12 10 10 8 8 6 3 2 2 3 5 6
8 14 14 17 18 15 12 20 24 25 23 23 23 21 22 23 27 24 25 20 19 19 19 20 20 21 21 21 20 19 18 18 20 17 17 17 14 13 13 13 12 8 6 3 1 2 4 5 6
6 11 11 3 9 12 9 17 10 12 17 21 23 21 22 22 23 28 28 27 23 19 17 20 20 21 22 22 21 20 19 19 20 18 19 18 16 17 16 15 13 10 7 5 3 2 3 4 6
11 10 14 10 10 8 14 12 9 4 9 14 14 16 17 19 21 28 29 30 29 25 22 20 21 23 24 24 23 22 21 20 21 18 19 18 18 18 17 16 13 10 7 5 3 3 3 4 6
9 15 12 12 4 7 15 21 20 18 18 17 17 17 17 18 18 21 24 27 30 29 26 24 24 23 22 22 24 23 20 22 22 20 18 19 19 22 20 17 13 10 8 6 4 4 3 4 7
9 8 11 10 9 16 21 22 20 19 21 22 21 21 22 22 20 23 25 24 27 32 32 30 27 26 24 24 25 24 23 24 21 18 19 19 21 22 20 18 13 10 8 7 5 4 4 5 9
13 14 15 14 14 13 17 28 25 27 27 23 24 24 25 24 23 22 29 28 29 29 29 30 29 26 26 24 24 23 23 22 20 18 20 22 24 23 21 16 12 11 11 8 6 4 3 4 8
13 13 12 14 17 18 21 24 15 7 8 15 21 24 25 24 23 22 23 30 29 32 30 29 30 26 27 25 24 21 23 21 18 19 19 21 24 25 20 16 13 12 10 9 6 5 4 3 3
13 10 13 14 9 6 3 10 15 15 16 14 13 13 15 16 18 20 21 22 29 30 30 28 27 26 27 27 27 31 27 24 21 25 20 21 23 24 20 16 13 12 11 9 7 6 4 2 2
7 2 6 8 10 13 14 7 13 5 11 12 13 13 12 13 14 15 18 22 26 27 28 26 25 26 26 29 29 30 23 22 25 25 25 21 24 24 21 14 12 12 11 9 7 6 4 3 1
3 5 7 9 6 8 11 15 19 11 15 14 12 15 9 9 9 11 14 19 21 24 21 25 25 26 27 28 28 29 26 28 29 27 25 25 27 24 20 17 13 12 12 9 8 6 4 2 1
9 2 2 3 5 7 5 10 20 11 17 7 7 8 14 9 11 14 15 13 17 19 25 22 26 27 28 28 28 29 28 29 30 33 29 31 29 27 22 17 14 13 11 9 8 6 3 1 1
14 10 5 5 7 10 8 10 7 8 5 6 12 17 14 12 9 11 15 14 16 20 22 24 27 26 28 29 28 27 26 25 25 26 27 26 28 22 22 17 14 12 11 9 7 4 3 1 3
6 9 11 13 18 11 9 21 24 26 24 21 18 17 15 10 10 11 13 14 18 19 23 25 26 26 27 28 26 26 26 28 30 29 29 25 22 21 20 18 15 12 10 8 6 3 2 3 4
10 4 1 4 5 10 13 20 14 15 14 15 12 15 13 8 11 12 11 11 16 18 22 26 27 27 26 26 24 25 25 28 29 29 27 25 22 21 21 18 14 11 9 6 4 2 2 4 5
10 6 6 6 5 6 14 13 10 10 5 9 7 5 5 8 10 10 12 9 11 15 19 24 26 26 26 25 24 25 26 30 32 30 26 25 24 22 18 17 14 11 8 5 3 2 3 5 7
12 13 17 7 9 7 12 20 13 11 10 5 10 7 7 7 8 9 9 5 6 11 16 22 24 25 26 25 24 25 31 31 28 29 26 25 22 21 17 16 13 10 7 4 2 3 5 7 9
Wind_Direction
311 301 290 267 252 229 258 241 247 237 231 233 338 278 318 334 348 267 145 108 139 147 156 158 161 157 153 152 150 142 134 136 142 142 131 119 118 107 88 67 65 56 54 64 58 55 55 61 63
296 290 253 269 251 249 247 216 209 235 266 292 251 245 255 267 48 94 142 142 147 148 155 160 165 160 157 156 153 143 129 132 142 142 133 123 119 113 96 89 71 65 66 67 71 61 53 49 43
278 260 265 237 237 248 257 156 243 163 241 239 246 229 286 46 78 124 114 146 151 152 157 164 166 168 162 158 156 147 138 142 143 138 136 113 115 127 122 103 78 71 72 73 72 64 56 52 47
237 223 244 247 245 237 258 270 247 232 200 202 304 256 142 44 117 86 141 148 154 154 155 159 169 170 168 160 158 151 149 152 146 145 134 133 139 145 147 126 64 69 80 80 73 67 57 52 50
230 253 239 230 244 252 233 266 205 244 256 239 202 244 173 107 117 129 150 153 157 156 148 154 175 181 175 166 161 156 148 151 150 157 138 145 165 185 187 198 140 83 85 82 74 53 52 43 43
219 236 237 237 240 241 247 217 222 236 248 237 244 246 132 113 148 141 149 156 163 158 157 159 175 180 178 172 165 163 158 157 163 168 156 158 187 217 206 184 165 118 98 72 59 55 52 45 36
237 220 238 246 250 245 224 223 239 240 236 229 232 254 122 123 102 148 153 157 163 163 161 163 173 180 180 178 173 171 169 172 169 167 167 181 143 102 150 158 148 134 103 79 61 62 59 24 17
243 251 244 246 250 249 246 215 243 246 245 112 240 231 197 92 131 146 152 157 166 166 169 172 174 174 173 178 182 178 177 180 183 181 187 193 156 128 144 149 149 140 127 107 77 46 49 27 17
246 249 237 236 243 248 254 218 229 245 261 212 210 274 68 109 151 158 164 168 171 175 179 182 180 183 179 180 183 180 183 183 188 191 195 193 178 153 146 166 155 146 143 129 39 29 47 35 18
221 229 238 247 252 248 268 219 235 220 229 230 214 196 140 151 180 185 189 186 188 187 189 188 188 183 178 174 182 180 185 184 185 188 195 188 188 182 172 169 162 159 166 305 348 29 50 28 339
222 243 239 247 302 287 272 238 250 250 254 224 222 213 176 198 191 211 211 204 195 197 195 196 193 189 180 178 179 185 188 191 192 191 185 190 185 184 176 170 170 161 132 113 98 44 32 10 355
239 250 256 273 257 253 250 263 249 245 254 263 247 293 236 243 233 209 219 222 209 199 197 198 197 194 190 188 191 190 194 189 195 193 192 188 183 179 180 184 147 146 146 145 81 29 20 350 345
238 253 241 267 264 259 266 262 264 255 254 259 270 253 253 255 252 242 229 227 219 208 201 198 198 197 197 195 199 200 200 193 195 193 193 187 185 184 183 160 160 156 149 124 61 355 344 339 336
303 262 269 254 255 250 256 260 255 247 249 255 257 257 252 250 247 251 234 223 225 213 208 203 202 200 200 201 204 205 203 197 195 192 193 189 186 182 168 164 163 177 180 181 92 13 344 343 334
270 264 262 248 242 237 254 261 251 251 251 251 248 244 245 249 251 244 247 232 224 218 214 208 204 205 204 203 207 208 205 202 196 195 191 189 181 170 174 178 180 184 183 133 102 16 1 337 327
238 246 258 180 227 237 223 262 267 239 236 245 247 249 249 245 242 242 241 237 233 229 218 215 206 205 206 208 207 209 206 203 195 198 188 186 181 182 181 182 183 177 165 137 118 43 349 341 331
220 257 221 240 197 241 212 277 288 246 278 255 254 251 248 244 242 242 239 240 238 230 224 219 210 209 208 208 208 211 209 202 192 195 187 182 179 180 179 182 180 156 146 144 127 75 38 1 339
234 221 247 263 171 235 266 271 275 273 266 261 262 258 256 247 243 245 244 243 243 235 226 226 203 207 208 208 207 205 206 195 197 184 181 181 180 184 182 175 158 153 149 137 121 108 63 29 347
267 282 277 280 287 289 280 277 275 275 267 259 256 254 253 252 252 244 238 241 240 233 231 223 220 208 205 199 199 197 187 185 182 182 182 179 180 180 176 167 155 153 149 137 136 119 74 26 1
256 264 267 285 281 295 295 286 285 270 259 256 254 252 251 250 247 244 242 234 235 234 228 227 220 212 204 196 197 190 176 169 172 176 175 179 178 174 175 167 154 156 141 132 124 118 99 60 25
240 257 272 276 302 291 282 287 264 252 250 249 243 248 253 255 253 247 241 237 228 231 228 223 222 209 198 193 180 166 158 157 157 168 166 166 170 170 171 161 153 154 145 139 127 104 88 88 61
257 266 271 275 290 274 81 294 285 287 272 246 246 243 242 245 246 249 252 246 236 229 227 222 220 206 195 187 178 175 173 170 174 165 164 161 166 161 162 163 155 151 144 139 130 110 91 66 67
263 3 279 276 275 304 256 244 267 222 267 253 241 241 231 240 241 244 237 237 247 242 225 213 215 208 192 185 183 178 179 181 159 157 157 158 160 165 154 155 161 147 142 142 134 115 102 72 33
63 259 260 257 271 261 239 221 277 278 288 281 291 232 221 264 279 271 260 257 237 239 235 201 205 203 192 187 182 182 181 169 153 153 156 157 160 162 156 162 160 148 145 141 135 129 118 111 37
207 209 277 216 208 249 317 208 242 285 299 289 274 244 286 293 296 294 271 253 236 223 223 204 205 196 187 183 187 189 181 171 162 159 161 156 157 159 159 161 156 148 149 145 137 137 139 145 283
205 209 221 259 239 298 329 244 246 276 292 282 275 262 266 286 303 311 296 262 242 219 213 199 204 191 186 186 184 185 169 168 164 163 159 154 157 158 155 159 153 145 144 142 140 142 146 207 263
177 213 246 283 282 278 251 270 270 270 270 278 250 252 258 272 294 324 318 280 239 218 212 200 199 191 184 182 177 168 166 164 160 155 154 152 155 156 157 153 145 145 145 143 148 156 194 245 258
221 338 142 212 270 270 259 268 265 278 254 270 290 246 235 279 306 331 336 294 244 220 203 199 195 185 180 174 167 162 161 154 150 148 148 150 152 155 152 146 145 144 145 146 150 174 226 256 270
197 227 234 299 228 271 291 268 316 307 346 328 244 205 271 296 311 331 338 306 271 228 198 192 185 172 170 161 159 160 155 146 145 147 143 143 152 150 148 144 143 145 146 150 165 210 251 266 276
238 216 225 231 230 234 261 266 302 276 254 267 275 266 240 265 314 330 337 334 274 217 183 185 170 165 155 149 152 152 142 145 140 138 141 141 144 143 144 139 140 143 145 151 190 257 267 277 284